Location: *
(43.4667°N, 11.6833°E)
Time: 09:36:43
(UTC+00:00)

In-Cosmos 22 Rocket - Pass Details

Date: 19 July 2019
Orbit: 791 x 887 km, 81.2° (Epoch: 23 August)

Event Time Altitude Azimuth Distance (km) Brightness Sun altitude
Rises 19:56:55 0° 190° (S) 3,303 7.0 -10.7°
Reaches altitude 10° 19:59:16 10° 191° (SSW) 2,388 6.3 -11.0°
Maximum altitude 20:04:40 83° 280° (W) 836 4.2 -11.7°
Drops below altitude 10° 20:10:16 10° 9° (N) 2,467 7.1 -12.5°
Sets 20:12:44 0° 10° (N) 3,422 7.9 -12.8°
